This demonstration page uses our WeatherBlox Daily Observations layout. Learn more.

Left ArrowRight Arrow

Hourly Observations for January 22, 2021

Temp ( °F °C ) Dew Point ( °F °C ) Humidity (%) Winds ( mph kmh ) Pressure ( in mb ) Visibility ( mi km ) Precip ( " mm )
12:53 am 00:53 Clear 7 -13.9 3 -16.1 84 84 SW 6 9 30.24 1024 10 16 0.00 0.00
1:53 am 01:53 Clear 7 -13.9 3 -16.1 84 84 WSW 7 11 30.24 1024 10 16 0.00 0.00
2:53 am 02:53 Clear 7 -13.9 4 -15.6 87 87 W 6 9 30.22 1024 10 16 0.00 0.00
3:53 am 03:53 Clear 6 -14.4 3 -16.1 87 87 W 6 9 30.22 1023 10 16 0.00 0.00
4:53 am 04:53 Clear 7 -13.9 4 -15.6 87 87 W 6 9 30.21 1023 10 16 0.00 0.00
5:53 am 05:53 Clear 7 -13.9 3 -16.1 84 84 W 7 11 30.20 1023 10 16 0.00 0.00
6:53 am 06:53 Clear 5 -15 2 -16.7 87 87 W 7 11 30.22 1023 10 16 0.00 0.00
7:53 am 07:53 Clear 6 -14.4 3 -16.1 87 87 WSW 7 11 30.22 1023 10 16 0.00 0.00
8:53 am 08:53 Sunny 8 -13.3 5 -15 87 87 W 5 7 30.20 1023 10 16 0.00 0.00
9:53 am 09:53 Sunny 14 -10 10 -12.2 84 84 W 3 6 30.17 1022 10 16 0.00 0.00
10:53 am 10:53 Sunny 20 -6.7 15 -9.4 81 81 WSW 5 7 30.15 1021 10 16 0.00 0.00
11:53 am 11:53 Sunny 25 -3.9 17 -8.3 72 72 SW 7 11 30.11 1020 10 16 0.00 0.00
12:53 pm 12:53 Sunny 29 -1.7 17 -8.3 61 61 W 3 6 30.08 1019 10 16 0.00 0.00
1:53 pm 13:53 Partly Cloudy 30 -1.1 16 -8.9 56 56 WSW 5 7 30.05 1018 10 16 0.00 0.00
2:53 pm 14:53 Sunny 31 -0.6 16 -8.9 54 54 Calm 30.04 1017 10 16 0.00 0.00
3:53 pm 15:53 Sunny 31 -0.6 15 -9.4 52 52 Calm 30.03 1017 10 16 0.00 0.00
4:53 pm 16:53 Sunny 28 -2.2 14 -10 56 56 Calm 30.03 1017 10 16 0.00 0.00
5:53 pm 17:53 Clear 23 -5 14 -10 68 68 Calm 30.05 1018 10 16 0.00 0.00
6:53 pm 18:53 Clear 13 -10.6 8 -13.3 81 81 S 8 13 30.06 1018 10 16 0.00 0.00
7:53 pm 19:53 Clear 14 -10 10 -12.2 84 84 WSW 3 6 30.06 1018 10 16 0.00 0.00
8:53 pm 20:53 Clear 11 -11.7 7 -13.9 84 84 W 5 7 30.07 1018 10 16 0.00 0.00
9:53 pm 21:53 Clear 8 -13.3 5 -15 87 87 W 7 11 30.07 1018 10 16 0.00 0.00
10:53 pm 22:53 Clear 10 -12.2 6 -14.4 84 84 W 3 6 30.06 1018 10 16 0.00 0.00
11:53 pm 23:53 Clear 13 -10.6 9 -12.8 84 84 SW 9 15 30.04 1017 10 16 0.00 0.00

Powered by AerisWeather